Regional Weather Roundup
Issued by NWS Jackson, KY

Home | Current Version | Previous Version | Text Only | Print | Product List | Glossary Off
Versions: 1 2 3 4 5 6 7 8 9 10 11 12 13 14 15 16 17 18 19 20 21 22 23 24 25 26 27 28 29 30 31 32 33 34 35 36 37 38 39 40 41 42 43 44 45 46 47 48 49 50

000
ASUS43 KJKL 250205
RWRJKL

EAST KENTUCKY HOURLY WEATHER ROUNDUP
NATIONAL WEATHER SERVICE JACKSON KY
1000 PM EDT FRI OCT 24 2014

NOTE: "FAIR" INDICATES FEW OR NO CLOUDS BELOW 12,000 FEET WITH
NO SIGNIFICANT WEATHER AND/OR OBSTRUCTIONS TO VISIBILITY.

* THESE REPORTS ARE NOT UNDER NWS QUALITY CONTROL AND MAY NOT
  REPORT WEATHER SUCH AS PRECIPITATION AND FOG.

KYZ079-080-083-085-087-088-110-112-115-119-120-250300
...EASTERN KENTUCKY...

CITY           SKY/WX    TMP DP  RH WIND       PRES   REMARKS
JACKSON        CLEAR     55  41  59 NW6       30.08R
LONDON         CLEAR     49  42  77 CALM      30.09R
SOMERSET*      PTCLDY    45  45 100 CALM      30.10R
MONTICELLO*    CLEAR     43  41  93 CALM      30.11R FOG
MIDDLESBORO*   CLEAR     45  42  91 CALM      30.10R
HARLAN APT*    CLEAR     45  41  87 CALM      30.09R
BLACK MTN*       N/A     46  30  53 N2          N/A
PIKEVILLE APT* CLEAR     50  41  71 S3        30.08R
BIG SANDY*     CLEAR     50  43  77 CALM      30.07S
MOREHEAD APT*  CLEAR     46  41  81 S6        30.09S
$$

KYZ035-036-041-042-044-050-067-078-099-250300
...CENTRAL KENTUCKY...

CITY           SKY/WX    TMP DP  RH WIND       PRES   REMARKS
MT STERLING*   PTCLDY    45  41  87 SW3       30.08S
FLEMING/MASON* PTCLDY    51  41  68 W3        30.08R
DANVILLE*      CLEAR     46  37  71 CALM      30.09R
RICHMOND*      CLEAR     48  41  76 SE6       30.07S
LEXINGTON      CLEAR     49  42  77 S3        30.07R
FRANKFORT      CLEAR     47  41  80 CALM      30.06R
$$

KYZ091>093-OHZ055-061-077-WVZ005-015-034-035-042-250300
...SOUTHERN OHIO/WEST VIRGINIA...

CITY           SKY/WX    TMP DP  RH WIND       PRES   REMARKS
COVINGTON      CLEAR     49  41  74 S3        30.04F
COLUMBUS       PTCLDY    50  40  68 SE5       30.02S
DAYTON         PTCLDY    54  41  61 SW7       30.03F
WILMINGTON     PTCLDY    49  39  68 CALM      30.04S
HUNTINGTON     CLEAR     48  42  80 CALM      30.05S
CHARLESTON     CLEAR     46  42  86 CALM      30.06R
PINEVILLE*     CLEAR     41  41 100 MISG      30.13S
BECKLEY        CLEAR     41  36  82 S3        30.08R
BLUEFIELD      CLEAR     45  36  70 W6        30.09R
$$

VAZ002-007-008-TNZ017-027-036-066-071-250300
...SOUTHWEST VIRGINIA/EAST TENNESSEE...

CITY           SKY/WX    TMP DP  RH WIND       PRES   REMARKS
WISE*          CLEAR     46  36  66 CALM      30.09S
JONESVILLE*    CLEAR     45  41  87 CALM      30.09S
ABINGDON*      CLEAR     46  40  81 CALM      30.07S
BRISTOL        CLEAR     46  41  82 CALM      30.08R
KNOXVILLE      CLEAR     51  44  77 CALM      30.06R
OAK RIDGE      CLEAR     51  46  83 CALM      30.09R
CROSSVILLE     CLEAR     48  39  71 CALM      30.09S
NASHVILLE      PTCLDY    56  47  71 CALM      30.09R
$$

...KEY TO REMARKS...
VSB - VISIBILITY IN MILES
WCI - WIND CHILL INDEX
HX  - HEAT INDEX

$$



USA.gov is the U.S. government's official web portal to all federal, state and local government web resources and services.